Location: Unspecified
(0.0000°N, 0.0000°E)
Time: 04:31:47
(UTC+00:00)

deb Midas III - Pass Details

Date: 14 March 2026
Orbit: 3314 x 3545 km, 91.1° (Epoch: 15 April)

Event Time Altitude Azimuth Distance (km) Brightness Sun altitude
Rises 00:13:06 0° 151° (SSE) 7,608 ? -87.2°
Reaches altitude 10° 00:18:25 10° 141° (SE) 6,567 ? -86.5°
Enters shadow 00:21:12 16° 135° (SE) 6,067 ? -86.1°
Exits shadow 00:46:59 13° 28° (NNE) 6,133 ? -80.2°
Drops below altitude 10° 00:48:32 10° 25° (NNE) 6,422 ? -79.9°
Sets 00:53:25 0° 16° (NNE) 7,421 ? -78.7°
